Location: Southern.California
(34.1460°N, 118.1120°W)
Time: 05:05:04
(UTC-07:00)

ISS - Pass Details

Date: 26 February 2013
Orbit: 408 x 410 km, 51.6° (Epoch: 21 April)

Event Time Altitude Azimuth Distance (km) Brightness Sun altitude
Rises 19:02:01 0° 237° (WSW) 2,352 1.0 -16.4°
Reaches altitude 10° 19:04:06 10° 242° (WSW) 1,509 0.0 -16.8°
Maximum altitude 19:07:24 52° 320° (NW) 550 -3.0 -17.5°
Enters shadow 19:09:11 25° 27° (NNE) 943 -2.2 -17.9°
